Weather History for West Palm Beach, FL

Change the Weather History Date:

Thursday, April 17, 2014

  Actual Average Record
Temperature  
Mean Temperature 79 °F 74 °F  
Max Temperature 83 °F 82 °F 93 °F (1908)
Min Temperature 75 °F 66 °F 45 °F (1913)
Degree Days  
Heating Degree Days 0 0  
Month to date heating degree days 0 0  
Since 1 July heating degree days 122 229  
Cooling Degree Days 14 9  
Month to date cooling degree days 176 137  
Year to date cooling degree days 724 565  
Growing Degree Days 28 (Base 50)    
Moisture  
Dew Point 69 °F    
Average Humidity 74    
Maximum Humidity 82    
Minimum Humidity 65    
Precipitation  
Precipitation 0.03 in 0.13 in 15.22 in (1942)
Month to date precipitation 0.75 2.22  
Year to date precipitation 14.63 12.76  
Snow  
Snow 0.00 in - - ()
Month to date snowfall 0.0  
Since 1 July snowfall 0.0  
Snow Depth 0.00 in    
Sea Level Pressure  
Sea Level Pressure 30.09 in    
Wind  
Wind Speed 15 mph (ENE)    
Max Wind Speed 23 mph    
Max Gust Speed 31 mph    
Visibility 10 miles    
Events Rain    
T = Trace of Precipitation, MM = Missing Value Source: NWS Daily Summary

Daily Weather History Graph

Daily Weather History Graph

Search for Another Location

Airport:

Trip Planner

Search our weather history database for the weather conditions in past years. The results will help you decide how hot, cold, wet, or windy it might be!

Date:

Astronomy

Apr. 17, 2014 Rise Set
Actual Time 6:54 AM EDT 7:45 PM EDT
Civil Twilight 6:30 AM EDT 8:09 PM EDT
Nautical Twilight 6:02 AM EDT 8:37 PM EDT
Astronomical Twilight 5:34 AM EDT 9:06 PM EDT
Moon 10:18 PM EDT (4/17) 8:34 AM EDT (4/17)
Length of Visible Light 13h 38m
Length of Day
12h 50m
Waning Gibbous, 94% of the Moon is Illuminated
Apr 17
Waning Gibbous
Apr 22
Last Quarter
Apr 29
New
May 6
First Quarter
May 14
Full

Hourly Weather History & Observations

Time (EDT) Temp. Heat Index Dew Point Humidity Pressure Visibility Wind Dir Wind Speed Gust Speed Precip Events Conditions
12:53 AM 75.0 °F - 68.0 °F 79% 30.08 in 10.0 mi ENE 11.5 mph - N/A   Mostly Cloudy
1:53 AM 75.0 °F - 69.1 °F 82% 30.06 in 10.0 mi ENE 11.5 mph - N/A   Mostly Cloudy
2:19 AM 75.9 °F - 68.0 °F 76% 30.05 in 10.0 mi ENE 11.5 mph - N/A   Mostly Cloudy
2:53 AM 75.9 °F - 68.0 °F 76% 30.06 in 10.0 mi ENE 11.5 mph - N/A   Mostly Cloudy
3:07 AM 75.9 °F - 68.0 °F 76% 30.05 in 10.0 mi ENE 10.4 mph - N/A   Overcast
3:53 AM 75.9 °F - 68.0 °F 76% 30.05 in 10.0 mi ENE 11.5 mph - N/A   Mostly Cloudy
4:53 AM 75.9 °F - 69.1 °F 79% 30.05 in 10.0 mi East 10.4 mph - 0.00 in   Mostly Cloudy
5:53 AM 75.9 °F - 68.0 °F 76% 30.06 in 10.0 mi East 11.5 mph - N/A   Mostly Cloudy
6:53 AM 75.9 °F - 68.0 °F 76% 30.08 in 10.0 mi East 10.4 mph - N/A   Mostly Cloudy
7:53 AM 77.0 °F - 68.0 °F 74% 30.10 in 10.0 mi East 11.5 mph - N/A   Mostly Cloudy
8:53 AM 79.0 °F - 69.1 °F 72% 30.11 in 10.0 mi East 12.7 mph - N/A   Mostly Cloudy
9:49 AM 78.8 °F - 69.8 °F 74% 30.13 in 10.0 mi ENE 15.0 mph - N/A   Mostly Cloudy
9:53 AM 79.0 °F - 69.1 °F 72% 30.13 in 10.0 mi East 15.0 mph - N/A   Mostly Cloudy
10:53 AM 80.1 °F 83.2 °F 70.0 °F 71% 30.15 in 10.0 mi ENE 11.5 mph 20.7 mph N/A   Mostly Cloudy
11:53 AM 82.0 °F 85.9 °F 70.0 °F 67% 30.15 in 10.0 mi East 18.4 mph - 0.00 in   Mostly Cloudy
12:53 PM 81.0 °F 84.4 °F 70.0 °F 69% 30.14 in 10.0 mi East 19.6 mph - N/A   Mostly Cloudy
1:53 PM 82.0 °F 85.9 °F 70.0 °F 67% 30.13 in 10.0 mi East 21.9 mph - N/A   Mostly Cloudy
2:31 PM 82.0 °F 85.9 °F 70.0 °F 67% 30.12 in 10.0 mi ENE 16.1 mph 21.9 mph N/A   Mostly Cloudy
2:53 PM 82.0 °F 85.9 °F 70.0 °F 67% 30.10 in 10.0 mi ENE 16.1 mph - N/A   Mostly Cloudy
3:04 PM 81.0 °F 84.4 °F 70.0 °F 69% 30.11 in 10.0 mi NE 18.4 mph - N/A   Mostly Cloudy
3:53 PM 79.0 °F - 70.0 °F 74% 30.09 in 10.0 mi ENE 16.1 mph 25.3 mph N/A   Overcast
4:53 PM 78.1 °F - 70.0 °F 76% 30.09 in 10.0 mi ENE 21.9 mph 26.5 mph N/A   Overcast
5:53 PM 77.0 °F - 71.1 °F 82% 30.08 in 10.0 mi ENE 17.3 mph - 0.01 in Rain Light Rain
6:53 PM 75.9 °F - 70.0 °F 82% 30.08 in 10.0 mi ENE 15.0 mph - 0.00 in Rain Light Rain
7:41 PM 75.9 °F - 70.0 °F 82% 30.08 in 10.0 mi ENE 15.0 mph 27.6 mph 0.00 in   Mostly Cloudy
7:53 PM 75.9 °F - 70.0 °F 82% 30.08 in 10.0 mi ENE 17.3 mph 24.2 mph 0.00 in   Mostly Cloudy
8:53 PM 75.9 °F - 70.0 °F 82% 30.08 in 10.0 mi ENE 15.0 mph 27.6 mph 0.00 in   Mostly Cloudy
9:07 PM 75.9 °F - 70.0 °F 82% 30.10 in 10.0 mi ENE 18.4 mph 24.2 mph N/A   Overcast
9:53 PM 75.9 °F - 70.0 °F 82% 30.11 in 10.0 mi ENE 17.3 mph 24.2 mph 0.00 in   Overcast
10:53 PM 75.9 °F - 70.0 °F 82% 30.11 in 10.0 mi ENE 17.3 mph 25.3 mph 0.02 in   Mostly Cloudy
11:10 PM 75.9 °F - 70.0 °F 82% 30.11 in 10.0 mi ENE 16.1 mph - N/A   Overcast
11:53 PM 75.9 °F - 70.0 °F 82% 30.11 in 10.0 mi ENE 18.4 mph - 0.00 in   Overcast